Temperature
21 21 20 20 20 21 21 21 21 21 21 21 21 20 20 20 20 20 20 20 20 20 20 20 20 20 20 19 19 19 19 19 19 19 19 18 18 18 18 18 18 18 18
22 21 21 20 20 21 21 21 21 21 21 21 21 21 20 20 20 20 20 20 20 20 20 20 20 20 20 20 20 20 20 20 19 19 19 19 18 18 19 18 18 18 18
23 22 21 21 21 21 21 21 21 21 21 21 21 21 21 20 20 20 20 20 20 20 20 21 21 21 21 20 20 20 20 20 19 19 19 19 19 19 19 19 18 18 18
24 22 21 21 21 21 21 21 21 21 21 21 21 21 21 21 21 21 20 20 21 21 21 21 21 21 21 21 20 20 20 20 19 19 19 19 19 19 19 19 19 19 18
24 23 22 21 21 21 21 21 21 21 21 21 21 21 21 21 21 21 21 21 21 21 21 21 21 21 21 21 20 20 20 19 19 19 19 19 18 18 19 19 19 19 19
24 23 22 21 21 21 21 21 21 21 21 21 21 21 21 21 21 20 20 20 20 20 20 20 20 20 20 20 20 20 20 19 19 19 19 19 18 18 18 19 19 19 19
24 23 22 22 21 21 21 21 21 21 21 21 21 21 20 20 20 20 20 20 20 20 20 20 20 20 20 20 20 20 20 20 19 19 18 18 18 18 18 18 19 19 19
24 23 22 22 22 21 21 21 21 21 21 21 20 20 20 20 20 20 20 20 20 20 20 20 20 20 20 20 20 20 20 19 19 19 18 18 18 18 18 18 18 18 19
24 24 23 22 22 21 21 21 21 21 21 20 20 20 20 20 20 20 20 20 19 19 20 20 20 20 20 20 20 20 19 19 19 19 19 18 18 18 18 18 18 18 18
24 24 23 23 22 21 21 21 21 21 21 20 20 20 20 20 20 20 19 19 19 19 19 19 20 20 20 20 20 20 19 19 19 19 19 19 18 18 18 18 18 18 18
24 24 24 23 22 22 21 21 21 21 21 20 20 20 20 20 20 20 19 19 18 19 19 19 19 19 19 19 19 19 19 19 19 19 19 19 18 18 18 18 18 18 18
24 24 24 23 23 22 22 21 21 21 21 21 20 20 20 20 20 19 19 18 18 18 18 18 18 18 19 19 19 19 19 19 19 19 19 19 19 18 18 18 18 18 18
24 23 23 23 23 22 22 21 21 21 21 20 20 20 20 19 19 19 19 18 18 18 18 18 18 18 18 18 18 18 18 18 18 19 19 19 19 18 18 18 18 18 18
23 23 23 23 22 22 22 21 21 20 20 20 20 20 19 19 19 18 18 18 18 18 18 18 18 18 18 18 18 18 18 18 18 18 18 19 19 18 18 18 18 18 18
22 21 21 21 21 21 21 21 20 20 20 20 20 19 19 19 19 18 18 18 18 18 18 18 18 18 18 18 18 18 18 18 18 18 18 18 18 18 18 18 18 18 18
21 20 20 20 19 20 20 20 20 20 19 19 19 19 19 19 18 18 18 18 18 18 18 18 17 17 17 17 17 17 17 17 17 17 18 18 18 18 18 18 18 18 18
20 20 20 19 19 19 19 19 19 19 19 19 19 19 19 19 18 18 18 18 18 18 17 17 17 17 17 17 17 17 17 17 17 17 17 17 18 18 18 18 18 18 18
20 20 19 19 19 19 19 19 19 19 19 19 19 19 19 19 19 19 18 18 18 17 17 17 17 17 17 17 17 17 17 17 17 17 17 17 18 18 18 18 18 18 18
20 20 19 19 19 19 19 19 19 19 19 19 19 19 19 19 19 19 18 18 18 17 17 17 17 17 17 16 17 17 17 17 17 17 17 17 18 18 18 18 18 18 18
20 20 20 19 18 18 18 18 18 19 19 19 19 19 19 19 19 19 19 18 18 18 17 17 17 16 16 16 16 17 17 17 17 17 17 17 17 18 18 18 18 18 18
20 20 19 18 18 18 17 17 18 18 18 18 19 19 19 19 19 19 19 19 18 18 18 17 17 16 16 16 16 16 17 17 17 17 17 17 17 17 17 17 18 18 18
19 19 19 18 18 18 17 18 18 18 18 18 19 19 19 19 19 19 19 19 19 18 18 17 17 16 16 16 15 15 15 16 17 17 17 17 17 17 17 17 18 18 18
17 17 17 17 17 17 17 17 18 18 18 18 18 19 19 19 19 19 19 19 19 19 18 18 17 17 16 16 15 15 14 14 15 16 17 17 17 17 17 17 18 18 18
16 16 16 16 16 16 16 17 17 18 18 18 18 18 18 18 18 18 18 18 18 18 18 18 17 17 16 16 16 15 14 14 14 14 16 16 16 17 17 17 18 18 18
16 16 16 16 16 16 16 16 17 17 17 18 18 18 18 18 18 18 18 18 18 18 18 18 18 17 17 16 16 15 15 14 14 14 14 16 16 16 16 16 17 17 18
16 16 16 16 16 16 16 16 16 16 16 17 17 17 17 17 17 17 17 17 17 17 17 17 17 17 17 16 16 15 15 14 14 13 13 14 15 16 16 16 16 17 17
Wind_Speed
12 15 21 21 21 21 21 20 19 19 19 18 18 18 18 18 19 19 19 18 17 16 15 14 13 13 13 13 13 13 13 14 14 14 15 15 14 13 13 15 14 14 16
17 19 23 22 22 22 21 20 20 19 19 18 18 18 17 17 17 18 17 17 16 15 14 14 13 12 12 12 12 12 12 12 12 12 13 13 13 12 12 15 14 12 15
20 19 23 23 23 22 21 21 20 19 19 19 18 18 17 17 16 16 16 16 15 14 13 13 12 11 11 10 10 10 10 9 9 10 10 9 10 12 14 16 15 14 13
20 19 21 24 23 23 22 21 20 19 19 18 18 17 17 16 16 16 15 14 14 13 13 12 12 11 10 9 9 9 8 8 7 8 7 7 8 11 14 15 15 14 13
16 18 22 26 24 23 22 21 20 20 19 18 18 17 16 16 15 15 15 14 13 12 12 11 11 10 9 8 7 7 6 6 6 6 6 8 9 12 14 15 15 14 13
15 16 22 25 24 23 22 21 20 20 19 18 17 17 16 15 15 14 14 13 13 12 11 11 10 10 9 8 7 7 6 6 6 5 6 8 12 15 16 16 16 15 14
14 14 21 24 24 23 22 21 20 19 19 18 17 16 15 14 14 13 12 12 12 11 11 11 10 10 10 9 9 8 8 8 7 6 6 8 13 18 19 18 18 17 15
18 14 18 24 23 23 22 21 20 19 18 18 17 16 15 14 13 13 13 12 12 12 11 11 11 11 11 11 11 10 10 10 9 7 6 9 15 20 21 20 20 19 18
16 14 12 18 21 22 21 20 20 19 18 18 17 16 15 15 14 14 13 13 13 13 13 13 13 13 13 13 13 13 12 12 12 10 9 8 13 21 23 22 21 20 20
14 15 12 13 15 16 18 20 20 19 19 18 18 17 17 16 15 15 14 14 15 15 15 16 16 16 15 15 15 15 14 13 13 12 11 11 12 19 24 23 23 22 21
15 13 13 12 11 13 14 18 19 20 20 19 18 19 17 14 14 14 15 16 17 18 18 18 17 17 17 17 17 17 15 12 12 12 12 14 15 18 24 25 24 24 23
17 15 13 13 12 12 14 15 14 16 16 17 15 16 15 14 14 14 15 18 20 20 20 20 19 18 17 14 15 17 13 13 13 13 14 17 18 19 22 25 25 25 24
17 16 15 14 13 12 9 9 10 11 12 14 15 16 13 12 11 12 10 12 15 18 16 16 16 14 13 12 11 11 13 13 12 13 15 18 19 20 21 25 26 25 25
14 14 14 14 13 13 9 8 9 8 8 9 14 15 11 6 6 6 5 7 7 8 8 9 7 10 11 13 11 10 11 11 12 13 15 19 19 20 21 23 25 26 25
10 7 8 7 10 12 10 8 9 8 8 10 11 14 13 8 8 6 4 4 5 6 5 4 5 6 7 7 9 8 8 10 12 13 14 18 19 20 22 22 24 26 26
9 6 5 3 2 6 8 9 8 7 7 8 9 13 16 10 6 6 5 4 3 4 5 4 5 6 5 5 6 7 7 7 9 12 14 16 19 20 21 23 25 26 25
10 9 6 3 2 3 4 6 6 5 6 6 7 12 13 11 7 6 4 4 3 4 4 3 3 3 3 4 5 6 5 5 6 8 12 13 14 17 21 24 25 25 26
12 10 9 5 3 4 4 3 3 3 4 4 5 8 11 11 10 5 4 4 3 2 1 1 1 2 2 3 4 5 5 5 7 7 9 10 12 13 16 22 25 26 27
10 10 10 8 6 5 5 4 3 2 2 3 4 5 8 10 10 5 4 3 2 2 1 1 1 1 1 3 4 5 5 5 6 7 7 8 10 12 14 18 24 27 28
7 8 7 4 2 3 3 3 3 2 2 1 3 5 8 8 9 6 4 4 3 2 1 0 1 1 2 3 4 5 5 6 6 6 8 7 7 11 13 15 16 19 26
5 7 5 1 1 0 1 2 2 2 3 2 3 5 7 8 9 6 5 4 4 3 2 1 1 1 2 1 2 4 5 6 5 5 5 5 5 6 8 10 12 13 13
4 5 3 1 1 1 2 3 2 2 3 3 3 4 6 7 8 7 7 6 5 3 2 0 1 1 1 0 1 2 4 5 4 3 2 3 4 4 5 5 8 10 11
9 7 5 4 4 3 3 3 2 1 1 1 2 3 4 5 7 7 8 7 6 5 4 3 3 3 2 1 2 2 1 3 4 4 3 2 3 3 4 4 4 5 8
9 8 8 7 6 5 4 2 1 1 2 2 2 3 3 4 5 6 8 8 7 6 5 5 4 4 4 2 2 2 3 4 2 4 4 3 4 4 4 4 2 2 3
7 7 7 8 8 7 6 5 4 3 3 2 2 3 2 3 5 6 7 7 8 6 7 6 5 5 4 4 4 3 3 3 4 4 5 5 4 3 3 3 2 1 2
6 6 6 7 7 7 7 7 7 6 6 6 5 4 4 4 3 4 5 6 7 7 7 7 6 6 5 5 5 4 4 4 4 4 5 5 5 4 3 2 1 1 1
Wind_Direction
159 162 159 158 155 150 145 140 137 135 132 130 127 124 122 122 124 126 127 127 126 126 124 122 121 120 118 116 116 117 118 120 121 122 122 121 118 117 122 126 117 116 117
157 160 158 158 156 152 148 145 143 142 140 138 135 132 130 129 129 130 132 132 131 130 128 127 127 127 126 124 123 123 123 123 125 126 126 125 122 116 123 134 125 127 123
152 157 156 156 156 154 152 150 149 148 147 146 143 141 139 137 137 137 137 138 138 137 136 136 136 137 137 136 135 134 132 131 132 133 131 129 130 124 122 131 132 131 129
151 154 155 156 157 156 156 155 155 154 153 151 149 148 147 146 146 145 145 145 146 146 147 148 149 150 151 151 151 150 149 150 152 156 157 162 162 147 138 137 139 139 138
149 153 157 157 159 160 160 160 160 159 157 156 155 155 154 154 153 153 153 154 155 156 157 159 160 161 164 168 171 174 175 177 183 193 200 197 189 170 160 151 149 150 149
151 154 159 160 161 163 164 164 164 163 162 161 161 161 161 161 161 161 162 163 164 166 168 170 172 175 179 185 192 202 211 215 218 225 239 225 203 189 178 166 161 161 161
152 157 162 163 165 166 167 168 168 168 167 167 167 168 169 169 170 171 173 175 176 179 182 185 188 191 195 201 209 219 232 243 246 240 242 227 200 193 187 179 172 172 173
156 159 165 167 169 170 171 172 173 173 173 173 174 175 177 179 181 183 186 189 192 195 198 201 204 206 209 214 219 226 234 246 258 256 239 219 208 201 195 188 181 180 182
159 163 167 170 173 174 175 177 177 178 179 180 182 183 185 188 192 195 199 202 206 209 212 214 216 218 220 222 225 231 237 244 253 261 265 248 223 209 204 196 190 189 189
163 169 170 170 172 175 179 182 183 185 186 188 189 191 194 198 202 206 210 214 217 219 221 223 224 226 228 229 232 235 240 247 250 253 257 259 246 220 212 204 198 197 196
171 175 174 172 172 173 178 188 189 191 194 195 197 200 201 207 211 216 221 224 227 229 229 229 230 232 234 237 239 241 244 243 242 248 251 252 249 231 221 213 206 204 202
178 180 180 178 176 175 185 191 193 196 199 200 202 205 205 207 214 221 228 233 234 235 235 234 234 235 238 240 242 243 241 241 243 247 248 248 249 241 231 224 217 212 208
179 181 182 183 181 182 191 188 195 202 203 207 208 209 208 210 219 230 233 241 239 236 236 238 236 232 232 232 233 232 236 240 243 246 249 250 251 250 242 234 227 221 215
173 183 183 184 185 190 195 192 195 201 204 209 214 211 207 209 217 223 222 229 224 224 223 228 228 228 232 234 233 232 237 239 238 241 247 252 253 255 252 243 232 226 222
154 163 172 187 193 195 200 200 198 204 208 211 209 209 206 206 213 212 212 217 216 211 214 222 229 232 235 237 238 237 238 238 233 234 241 249 253 254 253 246 236 229 224
112 99 99 95 222 223 208 201 199 198 200 199 202 204 202 202 199 201 209 214 217 211 212 214 221 228 232 233 242 245 243 240 234 231 233 241 246 246 246 239 231 229 227
77 69 62 67 323 294 248 207 199 188 180 187 193 192 189 187 185 188 194 209 224 218 214 218 234 232 242 244 251 257 254 245 238 232 232 231 235 239 239 236 232 232 232
72 55 34 14 351 316 297 249 215 194 174 186 186 184 177 178 180 174 182 199 212 194 191 225 255 280 280 279 275 271 267 262 256 246 241 237 233 236 238 238 237 236 236
76 57 36 13 0 331 314 303 266 231 196 182 177 181 174 174 174 163 174 189 173 147 168 230 152 200 262 291 286 275 272 268 262 262 253 244 238 233 232 236 238 238 239
82 87 63 21 339 349 322 309 300 304 292 231 186 186 176 171 167 158 162 163 143 132 125 152 224 222 226 260 293 296 280 270 261 255 257 255 244 239 236 236 236 240 241
73 82 82 69 289 329 302 297 291 281 273 259 222 194 179 170 164 160 159 156 142 146 176 203 218 277 286 288 337 314 298 281 272 264 266 271 266 257 247 237 233 234 238
69 84 101 57 298 243 244 251 241 231 256 250 234 203 186 173 168 167 161 162 160 159 164 167 172 189 271 293 175 313 328 332 334 307 305 299 302 304 285 263 240 226 228
45 35 33 16 0 338 287 268 293 322 307 332 266 231 212 186 175 168 171 170 175 173 187 199 194 186 212 266 198 187 245 284 309 307 298 310 328 321 306 299 259 229 224
47 38 34 32 29 6 348 342 305 248 250 251 252 248 239 216 198 185 181 182 186 186 191 202 194 188 180 223 264 221 212 210 251 306 311 307 319 319 312 309 296 240 212
50 42 35 33 31 23 27 21 20 5 327 322 335 329 302 262 232 214 200 193 196 195 197 199 201 208 198 201 211 224 244 239 218 230 289 312 323 311 311 295 276 242 200
56 50 43 38 28 18 24 24 24 12 358 1 358 342 326 314 293 266 235 215 207 202 204 204 205 211 214 217 218 212 215 227 226 220 253 292 305 306 316 310 253 208 188
Height
1511 1515 1518 1520 1522 1523 1524 1525 1526 1527 1529 1530 1531 1532 1533 1534 1535 1536 1537 1538 1539 1540 1540 1541 1542 1542 1543 1544 1544 1544 1545 1545 1546 1546 1547 1547 1548 1548 1548 1548 1549 1549 1550
1508 1513 1517 1519 1521 1523 1524 1525 1526 1527 1529 1530 1531 1532 1534 1535 1536 1537 1538 1539 1540 1540 1541 1542 1543 1544 1544 1545 1545 1546 1546 1546 1547 1548 1548 1549 1549 1550 1550 1550 1550 1551 1551
1508 1512 1516 1519 1521 1522 1524 1525 1526 1527 1528 1530 1531 1532 1534 1535 1536 1538 1539 1540 1540 1541 1542 1543 1544 1544 1545 1546 1546 1547 1547 1548 1548 1549 1549 1550 1550 1551 1551 1551 1551 1552 1552
1507 1511 1515 1518 1520 1522 1523 1524 1526 1527 1529 1530 1531 1533 1534 1535 1537 1538 1539 1540 1541 1542 1543 1543 1544 1545 1546 1546 1547 1548 1548 1549 1549 1549 1550 1550 1551 1552 1553 1553 1553 1553 1554
1508 1511 1514 1517 1519 1521 1522 1524 1525 1527 1529 1530 1532 1533 1534 1535 1537 1538 1539 1540 1541 1542 1543 1543 1544 1545 1545 1546 1547 1548 1548 1549 1549 1549 1550 1550 1551 1552 1553 1554 1554 1554 1554
1508 1511 1514 1516 1519 1520 1522 1524 1525 1527 1528 1530 1532 1533 1534 1535 1537 1538 1539 1540 1540 1541 1542 1543 1543 1544 1545 1545 1546 1547 1548 1548 1549 1549 1549 1550 1550 1552 1553 1554 1554 1555 1555
1508 1511 1513 1516 1518 1520 1522 1523 1525 1527 1528 1530 1532 1533 1534 1535 1536 1537 1538 1539 1540 1540 1541 1542 1542 1543 1543 1544 1545 1546 1546 1547 1548 1548 1548 1549 1549 1550 1552 1553 1554 1554 1555
1508 1510 1513 1515 1517 1519 1521 1523 1525 1527 1528 1530 1531 1533 1534 1535 1536 1536 1537 1538 1539 1539 1540 1540 1541 1541 1542 1542 1543 1544 1544 1545 1546 1546 1547 1547 1548 1549 1550 1552 1553 1553 1554
1509 1510 1512 1514 1517 1519 1521 1523 1525 1526 1528 1529 1531 1532 1533 1534 1535 1536 1536 1537 1537 1538 1538 1539 1539 1540 1540 1541 1542 1542 1543 1543 1543 1544 1545 1545 1546 1547 1548 1550 1551 1552 1552
1508 1509 1511 1514 1516 1518 1521 1523 1524 1526 1527 1528 1530 1531 1532 1533 1533 1534 1535 1535 1536 1536 1537 1537 1537 1538 1538 1539 1540 1540 1540 1541 1541 1542 1543 1543 1544 1545 1546 1547 1548 1549 1550
1506 1508 1510 1512 1515 1517 1519 1521 1523 1524 1525 1526 1527 1528 1529 1530 1531 1532 1533 1533 1534 1534 1534 1535 1535 1535 1536 1536 1537 1537 1538 1538 1539 1539 1540 1541 1542 1542 1543 1545 1546 1547 1548
1503 1505 1508 1510 1513 1515 1517 1518 1520 1521 1522 1524 1525 1526 1527 1528 1529 1529 1530 1530 1531 1531 1531 1532 1532 1532 1533 1533 1534 1534 1534 1535 1536 1536 1537 1538 1538 1539 1540 1541 1542 1544 1545
1501 1504 1506 1509 1511 1513 1514 1516 1517 1519 1520 1521 1522 1524 1525 1526 1526 1527 1527 1527 1528 1528 1528 1529 1529 1529 1529 1530 1530 1530 1531 1532 1532 1533 1534 1534 1535 1536 1537 1537 1538 1540 1541
1501 1504 1507 1510 1511 1512 1513 1514 1515 1516 1517 1519 1520 1521 1522 1523 1524 1524 1524 1525 1525 1525 1525 1526 1526 1526 1526 1526 1526 1527 1527 1528 1528 1529 1530 1531 1532 1532 1533 1533 1534 1535 1537
1501 1505 1508 1511 1512 1512 1513 1513 1513 1514 1515 1517 1518 1519 1520 1520 1521 1521 1522 1522 1522 1522 1522 1522 1522 1522 1522 1522 1522 1522 1522 1523 1524 1524 1525 1526 1527 1527 1528 1528 1528 1530 1532
1500 1504 1507 1509 1510 1512 1512 1511 1511 1512 1513 1513 1515 1516 1517 1517 1518 1519 1519 1519 1519 1519 1519 1519 1518 1518 1518 1518 1518 1518 1518 1519 1519 1519 1520 1521 1521 1522 1523 1523 1524 1526 1527
1499 1501 1503 1505 1504 1505 1506 1508 1509 1508 1509 1510 1512 1513 1514 1515 1515 1516 1516 1516 1516 1516 1515 1515 1515 1515 1514 1514 1514 1513 1513 1513 1514 1514 1514 1515 1515 1516 1517 1518 1519 1520 1522
1496 1497 1498 1498 1499 1500 1502 1503 1506 1506 1507 1509 1510 1511 1512 1513 1514 1514 1513 1513 1513 1513 1512 1512 1511 1511 1510 1510 1509 1509 1509 1508 1508 1508 1508 1509 1509 1510 1511 1512 1514 1515 1517
1494 1496 1494 1493 1494 1496 1497 1499 1501 1504 1505 1506 1508 1509 1510 1510 1511 1511 1511 1510 1510 1510 1509 1508 1508 1507 1506 1506 1505 1504 1503 1503 1503 1503 1503 1503 1503 1504 1505 1506 1508 1509 1510
1494 1493 1492 1490 1489 1489 1492 1494 1496 1498 1501 1503 1505 1507 1507 1508 1508 1509 1509 1508 1507 1507 1505 1505 1504 1504 1503 1502 1501 1500 1498 1497 1497 1497 1498 1498 1498 1499 1499 1501 1502 1503 1505
1492 1491 1490 1489 1487 1489 1490 1492 1494 1496 1499 1501 1502 1503 1505 1505 1506 1507 1506 1505 1504 1503 1502 1501 1501 1500 1499 1498 1497 1495 1494 1493 1493 1493 1493 1493 1494 1494 1494 1495 1496 1498 1499
1493 1491 1490 1490 1489 1490 1492 1493 1495 1497 1498 1499 1500 1500 1501 1502 1503 1504 1504 1503 1502 1501 1499 1498 1497 1497 1496 1495 1494 1492 1490 1489 1488 1489 1490 1490 1490 1490 1490 1490 1490 1492 1494
1492 1492 1492 1491 1490 1491 1492 1493 1493 1495 1496 1497 1497 1498 1499 1499 1500 1500 1501 1500 1499 1498 1497 1495 1494 1494 1493 1492 1492 1491 1489 1486 1484 1483 1485 1486 1486 1486 1486 1485 1485 1486 1488
1495 1495 1494 1493 1493 1493 1493 1492 1493 1494 1494 1494 1495 1495 1495 1495 1496 1496 1496 1496 1496 1495 1494 1492 1492 1491 1490 1489 1488 1488 1488 1486 1484 1480 1480 1482 1482 1482 1481 1481 1481 1482 1483
1498 1497 1496 1496 1496 1494 1494 1493 1493 1493 1492 1491 1491 1491 1491 1491 1491 1491 1492 1492 1492 1492 1491 1489 1489 1488 1487 1485 1484 1484 1484 1483 1481 1480 1477 1476 1477 1478 1478 1477 1477 1478 1479
1500 1499 1499 1498 1497 1495 1494 1492 1491 1490 1488 1488 1487 1487 1486 1486 1486 1486 1486 1487 1487 1487 1487 1486 1485 1484 1484 1482 1481 1480 1479 1479 1477 1476 1475 1473 1473 1473 1474 1474 1474 1474 1476